{"data":{"norad_id":66008,"epoch":"2026-09-20T06:20:00.550464Z","epoch_age_seconds":123483,"freshness":"FRESH","line1":"1 66008U 25232D   26263.26389526  .00012152  00000+0  37014-3 0  9992","line2":"2 66008  53.1569 276.7350 0001229  85.2917 274.8226 15.34405811 53255","mean_motion":15.34405811,"eccentricity":0.0001229,"inclination_deg":53.1569,"raan_deg":276.735,"arg_perigee_deg":85.2917,"mean_anomaly_deg":274.8226,"bstar":0.00037014,"rev_number":5325,"period_min":93.847402667325,"perigee_km":461.84523160214,"apogee_km":463.52670588786,"semimajor_km":6840.822968745,"source":"CELESTRAK","updated_at":"2026-09-21T09:00:35.768721Z"}}